User: anonymous   Login
Location: Unspecified
(0.0000°N, 0.0000°E)
Time: 09:27:56
(UTC+00:00)
Language:

DNEPR OBJECT AC - Orbit

View from above orbital plane
View from above orbital plane
View from above satellite
View from above satellite

Ground track
Ground track

The orbit data is extracted from the following two-line orbital elements,

1 39442U 13066AC  17327.75130366  .00000518  00000-0  58306-4 0  9999
2 39442  97.6296  23.8281 0033109  54.8776 305.5537 14.90358549216454
Epoch (UTC): 23 November 2017 18:01:52
Eccentricity: 0.0033109
inclination: 97.6296°
perigee height: 574 km
apogee height: 620 km
right ascension of ascending node: 23.8281°
argument of perigee: 54.8776°
revolutions per day: 14.90358549
mean anomaly at epoch: 305.5537°
orbit number at epoch: 21645

The dashed part of the orbit path shows where the satellite is in the earth's shadow,  

DLR